Location: Unspecified
(41.1850°N, 73.2650°W)
Time: 03:18:10
(UTC+00:00)

X-37B - Visible Passes

Search period start: 21 October 2021 00:00
Search period end: 31 October 2021 00:00
Orbit: 385 x 389 km, 45.0° (Epoch: 17 October)

Date Brightness Start Highest point End Pass type
(mag) Time Alt. Az. Time Alt. Az. Time Alt. Az.
21 Oct 4.0 00:38:19 10° WNW 00:38:40 12° WNW 00:38:40 12° WNW visible
21 Oct 1.2 23:39:58 10° WNW 23:42:53 46° N 23:42:53 46° N visible
22 Oct 1.4 22:41:33 10° WNW 22:44:35 40° N 22:47:07 13° ENE visible
23 Oct 3.2 00:18:13 10° WNW 00:19:24 21° WNW 00:19:24 21° WNW visible
23 Oct 0.6 23:19:51 10° WNW 23:23:01 65° NNE 23:23:42 47° ENE visible
24 Oct 2.2 23:58:10 10° WNW 00:00:21 35° WSW 00:00:21 35° WSW visible
25 Oct 0.6 22:59:44 10° WNW 23:02:56 81° SSW 23:04:50 22° ESE visible
26 Oct 2.4 23:38:17 10° W 23:41:01 26° SSW 23:41:43 24° S visible
27 Oct 1.5 22:39:41 10° WNW 22:42:46 46° SSW 22:45:49 10° SE visible
28 Oct 3.5 23:18:50 10° WSW 23:20:42 15° SW 23:22:33 10° S visible
29 Oct 2.8 22:19:49 10° W 22:22:31 26° SSW 22:25:14 10° SSE visible
